Вернуться в каталог

FENGYUN 1C DEB

АктивенSSO
NORAD 30816·DEBRIS·🇨🇳 China

Запущен May 10, 1999 с Taiyuan Satellite Launch Center

Loading…

Ближайшие Пролёты (ближайшие 24 часа)

TLE

СвежийSource: Space-Track

Эпоха: Sep 14, 2026, 04:42 UTC

1 30816U 99025AVA 26257.19594987  .00001961  00000-0  94024-3 0  9996
2 30816  98.8980 333.8446 0050008 347.3981  39.0832 14.19516745  2999

Отслеживайте FENGYUN 1C DEB в реальном времени с AllMySat

Download on the App Store